User: anonymous   Login
Location: Unspecified
(0.0000°N, 0.0000°E)
Time: 12:58:26
(UTC+00:00)
Language:

PAYLOAD D - Orbit

View from above orbital plane
View from above orbital plane
View from above satellite
View from above satellite

Ground track
Ground track

The orbit data is extracted from the following two-line orbital elements,

1 27058U 01058D   17351.48101002 -.00000015  00000-0 -14246-3 0  9997
2 27058  82.5360  32.9214 0003351 165.8977 194.2210 12.62018977735786
Epoch (UTC): 17 December 2017 11:32:39
Eccentricity: 0.0003351
inclination: 82.5360°
perigee height: 1412 km
apogee height: 1417 km
right ascension of ascending node: 32.9214°
argument of perigee: 165.8977°
revolutions per day: 12.62018977
mean anomaly at epoch: 194.2210°
orbit number at epoch: 73578

The dashed part of the orbit path shows where the satellite is in the earth's shadow,  

DLR